Regional Weather Roundup
Issued by NWS

Home | Current Version | Previous Version | Text Only | Print | Product List | Glossary On
Versions: 1 2 3 4 5 6 7 8 9 10 11 12 13 14 15 16 17 18 19 20 21 22 23 24 25 26 27 28 29 30 31 32 33 34 35 36 37 38 39 40 41 42 43 44 45 46 47 48 49 50
671
ASCA44 KEWX 241020
RWRMX

LATIN AMERICA AND CARIBBEAN REGIONAL WEATHER ROUNDUP
NATIONAL WEATHER SERVICE AUSTIN/SAN ANTONIO TX
500 AM CDT SUN JUL 24 2016

NOTE: "FAIR" INDICATED FEW OR NO CLOUDS BELOW 12,000 FEET WITH NO
SIGNIFICANT WEATHER AND/OR OBSTRUCTIONS TO VISIBILITY.

BAJA CALIFORNIA

CITY           SKY/WX    TMP DP  RH WIND       PRES   REMARKS
S.J. DEL CABO    N/A    N/A N/A N/A MISG        N/A
TIJUANA        PTCLDY    70  61  73 CALM      29.85F

NORTHWESTERN MEXICO

CITY           SKY/WX    TMP DP  RH WIND       PRES   REMARKS
HERMOSILLO     LGT RAIN  77  72  83 CALM      29.89F

NORTHEASTERN MEXICO

CITY           SKY/WX    TMP DP  RH WIND       PRES   REMARKS
MONCLOVA         N/A    N/A N/A N/A MISG        N/A
MONTERREY      PTCLDY    77  66  69 NE5       29.89S
REYNOSA          N/A    N/A N/A N/A MISG        N/A
CD. VICTORIA     N/A    N/A N/A N/A MISG        N/A

WESTERN MEXICO

CITY           SKY/WX    TMP DP  RH WIND       PRES   REMARKS
AGUASCALIENTES PTCLDY    55  54  94 NE7       30.27
COLIMA           N/A    N/A N/A N/A MISG        N/A
DEL BAJIO      PTCLDY    59  59 100 CALM      30.30
GUADALAJARA    MOCLDY    64  61  88 CALM      30.19S
MAZATLAN       CLOUDY    77  75  94 E3        29.91R
P. VALLARTA    CLOUDY    77  77 100 N5        29.89F
URUAPAN          N/A    N/A N/A N/A MISG        N/A
ZACATECAS        N/A    N/A N/A N/A MISG        N/A

CENTRAL MEXICO

CITY           SKY/WX    TMP DP  RH WIND       PRES   REMARKS
CUERNAVACA       N/A    N/A N/A N/A MISG        N/A
MEXICO CITY    MOCLDY    57  52  82 NE7       30.35S
MORELIA        CLEAR     54  54 100 CALM      30.25S
POZA RICA        N/A    N/A N/A N/A MISG        N/A
QUERETARO      MOCLDY    55  54  94 CALM      30.31S
S. LUIS POTOSI CLEAR     55  48  76 CALM      30.26S
TOLUCA         MOCLDY    52  48  87 CALM      30.39F

SOUTHERN MEXICO

CITY           SKY/WX    TMP DP  RH WIND       PRES   REMARKS
ACAPULCO       PTCLDY    77  73  88 N3        29.88F
B. DE HUATULCO   N/A    N/A N/A N/A MISG        N/A
P. ESCONDIDO     N/A    N/A N/A N/A MISG        N/A
VERACRUZ         N/A    N/A N/A N/A MISG        N/A

YUCATAN PENINSULA

CITY           SKY/WX    TMP DP  RH WIND       PRES   REMARKS
CAMPECHE         N/A    N/A N/A N/A MISG        N/A
CANCUN         PTCLDY    77  77 100 CALM      29.97S
CHETUMAL         N/A    N/A N/A N/A MISG        N/A
CD. DEL CARMEN MOCLDY    81  73  78 E12       29.93
COZUMEL        PTCLDY    73  73 100 CALM      29.97S
MERIDA         MOCLDY    75  73  94 CALM      29.96S
MINATITLAN       N/A    N/A N/A N/A MISG        N/A
TAPACHULA      MOCLDY    77  75  94 NE9       29.86R
VILLAHERMOSA   PTCLDY    75  73  94 E8        29.93

CENTRAL AMERICA

CITY           SKY/WX    TMP DP  RH WIND       PRES   REMARKS
MANAGUA        PTSUNNY   77  73  88 E5        29.92R

CARIBBEAN

CITY           SKY/WX    TMP DP  RH WIND       PRES   REMARKS
ARUBA          PTCLDY    81  73  78 SE12      29.89S
CURACAO        PTCLDY    81  73  78 E9        29.89F
KINGSTON       PTCLDY    82  75  78 N6        29.94S
NASSAU         PTCLDY    79  77  94 CALM      30.04S
SAN JUAN       PTCLDY    79  75  89 CALM      29.99R
SANTO DOMINGO  PTCLDY    73  72  94 N5        29.97R
ST. CROIX      CLEAR     79  73  83 NE7       29.99
ST. KITTS      PTCLDY    81  73  78 E13       29.97

$$





USA.gov is the U.S. government's official web portal to all federal, state and local government web resources and services.